Weather History for Montrose, CO

Change the Weather History Date:

Sunday, April 22, 2012

  Actual Average Record
Temperature  
Mean Temperature 63 °F 51 °F  
Max Temperature 83 °F 65 °F 83 °F (2012)
Min Temperature 43 °F 37 °F 28 °F (2002)
Degree Days  
Heating Degree Days 2 14  
Month to date heating degree days 307 378  
Since 1 July heating degree days 5498 5834  
Cooling Degree Days 0 0  
Month to date cooling degree days 0 0  
Year to date cooling degree days 0 0  
Growing Degree Days 12 (Base 50)    
Moisture  
Dew Point 22 °F    
Average Humidity 29    
Maximum Humidity 49    
Minimum Humidity 9    
Precipitation  
Precipitation 0.00 in 0.03 in 0.26 in (2004)
Month to date precipitation 0.22 0.72  
Year to date precipitation 1.39 2.97  
Sea Level Pressure  
Sea Level Pressure 30.04 in    
Wind  
Wind Speed 7 mph (East)    
Max Wind Speed 15 mph    
Max Gust Speed 28 mph    
Visibility 10 miles    
Events      
T = Trace of Precipitation, MM = Missing Value Source: NWS Daily Summary

Daily Weather History Graph

Daily Weather History Graph

Search for Another Location

Airport:

Trip Planner

Search our weather history database for the weather conditions in past years. The results will help you decide how hot, cold, wet, or windy it might be!

Date:

Astronomy

Apr. 22, 2012 Rise Set
Actual Time 6:25 AM MDT 7:55 PM MDT
Civil Twilight 5:57 AM MDT 8:23 PM MDT
Nautical Twilight 5:23 AM MDT 8:57 PM MDT
Astronomical Twilight 4:48 AM MDT 9:32 PM MDT
Moon 6:59 AM MDT (4/22) 9:33 PM MDT (4/22)
Length of Visible Light 14h 26m
Length of Day
13h 30m
New Moon, 2% of the Moon is Illuminated
Apr 22
New Moon
Apr 29
First Quarter
May 5
Full
May 12
Last Quarter
May 20
New

Hourly Weather History & Observations

Time (MDT) Temp. Windchill Dew Point Humidity Pressure Visibility Wind Dir Wind Speed Gust Speed Precip Events Conditions
12:53 AM 54.0 °F - 21.9 °F 29% 30.04 in 10.0 mi SE 13.8 mph - N/A   Clear
1:53 AM 50.0 °F - 21.9 °F 33% 30.05 in 10.0 mi SE 9.2 mph - N/A   Clear
2:53 AM 46.0 °F 42.5 °F 23.0 °F 40% 30.06 in 10.0 mi SSE 6.9 mph - N/A   Clear
3:53 AM 44.1 °F 40.1 °F 23.0 °F 43% 30.07 in 10.0 mi SSE 6.9 mph - N/A   Clear
4:53 AM 44.1 °F 39.0 °F 24.1 °F 45% 30.07 in 10.0 mi SSE 9.2 mph - N/A   Clear
5:53 AM 43.0 °F 37.7 °F 24.1 °F 47% 30.08 in 10.0 mi SE 9.2 mph - N/A   Clear
6:53 AM 43.0 °F - 24.1 °F 47% 30.10 in 10.0 mi Calm Calm - N/A   Clear
7:53 AM 51.1 °F - 25.0 °F 36% 30.11 in 10.0 mi SSE 3.5 mph - N/A   Clear
8:53 AM 61.0 °F - 26.1 °F 26% 30.10 in 10.0 mi NNE 3.5 mph - N/A   Clear
9:53 AM 64.0 °F - 28.0 °F 26% 30.10 in 10.0 mi NW 4.6 mph - N/A   Clear
10:53 AM 69.1 °F - 27.0 °F 21% 30.08 in 10.0 mi Calm Calm - N/A   Clear
11:53 AM 73.0 °F - 26.1 °F 17% 30.06 in 10.0 mi NW 5.8 mph - N/A   Clear
12:53 PM 77.0 °F - 21.0 °F 12% 30.03 in 10.0 mi West 5.8 mph - N/A   Clear
1:53 PM 80.1 °F - 21.0 °F 11% 30.01 in 10.0 mi NNW 10.4 mph 21.9 mph N/A   Clear
2:53 PM 81.0 °F - 19.9 °F 10% 30.01 in 10.0 mi North 11.5 mph 27.6 mph N/A   Clear
3:53 PM 80.1 °F - 16.0 °F 9% 30.00 in 10.0 mi Variable 4.6 mph - N/A   Clear
4:53 PM 81.0 °F - 18.0 °F 10% 29.97 in 10.0 mi NNW 9.2 mph 18.4 mph N/A   Clear
5:53 PM 80.1 °F - 18.0 °F 10% 29.97 in 10.0 mi NE 3.5 mph - N/A   Clear
6:53 PM 79.0 °F - 18.0 °F 10% 29.97 in 10.0 mi NW 5.8 mph - N/A   Clear
7:53 PM 73.0 °F - 18.0 °F 12% 29.97 in 10.0 mi NNW 6.9 mph - N/A   Clear
8:53 PM 66.0 °F - 19.0 °F 17% 29.98 in 10.0 mi Calm Calm - N/A   Clear
9:53 PM 60.1 °F - 25.0 °F 26% 30.02 in 10.0 mi SE 10.4 mph - N/A   Clear
10:53 PM 57.9 °F - 25.0 °F 28% 30.02 in 10.0 mi SE 10.4 mph - N/A   Clear
11:53 PM 57.0 °F - 24.1 °F 28% 30.02 in 10.0 mi SE 11.5 mph - N/A   Clear